This is the latest recevied weather packets stored in our database for station/object W4SNA-3. If no packets are shown the sender has not sent any weather packets the latest 10 day(s).
| Time | Temp. | Humidity | Pressure | Rain* | Wind** | Luminosity | Snow |
|---|---|---|---|---|---|---|---|
| 1777990464 | 20.56° C | 56% | 1014.4 hPa | 0 mm | - | - | - |
| 1777989862 | 20.56° C | 51% | 1014.6 hPa | 0 mm | - | - | - |
| 1777989563 | 20.56° C | 53% | 1014.7 hPa | 0 mm | - | - | - |
| 1777989314 | 20.56° C | 47% | 1014.7 hPa | 0 mm | - | - | - |
| 1777988962 | 20.56° C | 47% | 1014.7 hPa | 0 mm | - | - | - |
| 1777988662 | 20.56° C | 45% | 1014.8 hPa | 0 mm | - | - | - |
| 1777988370 | 20.56° C | 49% | 1014.8 hPa | 0 mm | - | - | - |
| 1777988062 | 20.56° C | 48% | 1014.7 hPa | 0 mm | - | - | - |
| 1777987762 | 20° C | 46% | 1014.7 hPa | 0 mm | - | - | - |
| 1777987466 | 20° C | 48% | 1014.7 hPa | 0 mm | - | - | - |
| 1777987191 | 19.44° C | 50% | 1014.5 hPa | 0 mm | - | - | - |
| 1777986867 | 19.44° C | 47% | 1014.5 hPa | 0 mm | - | - | - |
| 1777986564 | 19.44° C | 49% | 1014.3 hPa | 0 mm | - | - | - |
| 1777986262 | 19.44° C | 50% | 1014.5 hPa | 0 mm | - | - | - |
| 1777985975 | 19.44° C | 49% | 1014.5 hPa | 0 mm | - | - | - |
| 1777985663 | 19.44° C | 51% | 1014.5 hPa | 0 mm | - | - | - |
| 1777985308 | 18.89° C | 51% | 1014.7 hPa | 0 mm | - | - | - |
| 1777985008 | 18.89° C | 51% | 1014.7 hPa | 0 mm | - | - | - |
| 1777984708 | 18.33° C | 50% | 1014.6 hPa | 0 mm | - | - | - |
| 1777984408 | 18.33° C | 53% | 1014.7 hPa | 0 mm | - | - | - |
| 1777984116 | 17.78° C | 53% | 1014.5 hPa | 0 mm | - | - | - |
| 1777983808 | 17.78° C | 55% | 1014.6 hPa | 0 mm | - | - | - |
| 1777983508 | 17.22° C | 54% | 1014.4 hPa | 0 mm | - | - | - |
| 1777983208 | 16.67° C | 55% | 1014.4 hPa | 0 mm | - | - | - |
| 1777982677 | 16.11° C | 58% | 1014.3 hPa | 0 mm | - | - | - |
* Rain latest hour (hover to see other rain measurements)
** Current wind speed in m/s (hover to see current wind gust speed)